TimeEDT,TemperatureF,Dew PointF,Humidity,Sea Level PressureIn,VisibilityMPH,Wind Direction,Wind SpeedMPH,Gust SpeedMPH,PrecipitationIn,Events,Conditions,WindDirDegrees,DateUTC
12:53 AM,60.1,52.0,75,30.10,10.0,Calm,Calm,-,N/A,,Clear,0,2013-07-29 04:53:00
1:53 AM,57.9,52.0,81,30.09,10.0,Calm,Calm,-,N/A,,Clear,0,2013-07-29 05:53:00
2:53 AM,57.9,53.1,84,30.09,10.0,Calm,Calm,-,N/A,,Clear,0,2013-07-29 06:53:00
3:53 AM,57.9,53.1,84,30.10,10.0,Calm,Calm,-,N/A,,Clear,0,2013-07-29 07:53:00
4:53 AM,55.9,53.1,90,30.11,10.0,Calm,Calm,-,N/A,,Clear,0,2013-07-29 08:53:00
5:53 AM,55.9,53.1,90,30.12,10.0,Calm,Calm,-,N/A,,Clear,0,2013-07-29 09:53:00
6:53 AM,55.0,53.1,93,30.14,10.0,Calm,Calm,-,N/A,,Clear,0,2013-07-29 10:53:00
7:53 AM,57.0,54.0,89,30.14,10.0,Calm,Calm,-,N/A,,Clear,0,2013-07-29 11:53:00
8:53 AM,61.0,55.9,83,30.16,10.0,Calm,Calm,-,N/A,,Clear,0,2013-07-29 12:53:00
9:53 AM,64.0,55.0,73,30.17,10.0,South,3.5,-,N/A,,Clear,190,2013-07-29 13:53:00
10:53 AM,68.0,55.9,65,30.18,10.0,Calm,Calm,-,N/A,,Clear,0,2013-07-29 14:53:00
11:53 AM,71.1,52.0,51,30.19,10.0,Calm,Calm,-,N/A,,Clear,0,2013-07-29 15:53:00
12:53 PM,73.0,53.1,49,30.18,10.0,Calm,Calm,-,N/A,,Scattered Clouds,0,2013-07-29 16:53:00
1:53 PM,73.0,52.0,48,30.18,10.0,Calm,Calm,-,N/A,,Scattered Clouds,0,2013-07-29 17:53:00
2:53 PM,73.0,54.0,51,30.18,10.0,Calm,Calm,-,N/A,,Scattered Clouds,0,2013-07-29 18:53:00
3:53 PM,77.0,57.0,50,30.17,10.0,Calm,Calm,-,N/A,,Scattered Clouds,0,2013-07-29 19:53:00
4:53 PM,75.9,57.0,52,30.17,10.0,Variable,3.5,-,N/A,,Clear,0,2013-07-29 20:53:00
5:53 PM,75.0,54.0,48,30.17,10.0,Calm,Calm,-,N/A,,Clear,0,2013-07-29 21:53:00
6:53 PM,73.9,55.0,52,30.16,10.0,Calm,Calm,-,N/A,,Partly Cloudy,0,2013-07-29 22:53:00
7:53 PM,72.0,57.9,61,30.18,10.0,Calm,Calm,-,N/A,,Clear,0,2013-07-29 23:53:00
8:53 PM,70.0,57.0,63,30.20,10.0,Calm,Calm,-,N/A,,Clear,0,2013-07-30 00:53:00
9:53 PM,69.1,57.0,65,30.21,10.0,Calm,Calm,-,N/A,,Overcast,0,2013-07-30 01:53:00
10:53 PM,66.9,55.9,68,30.21,10.0,SSE,3.5,-,N/A,,Clear,160,2013-07-30 02:53:00
11:53 PM,64.9,55.9,73,30.21,10.0,South,3.5,-,N/A,,Clear,170,2013-07-30 03:53:00